Home   Weather   Chiclayo   Past weeks

Flag for Peru Past Weather in Chiclayo, Lambayeque, Peru — Yesterday and Last 2 Weeks

Now
73 °F

Clear.


Feels Like: 75 °F
Forecast: 67 / 75 °F
Wind: 17 mph from South

Location: Chiclayo Airport

Current Time: Apr 30, 2017 at 7:51:07 pm

Latest Report: Apr 30, 2017 at 7:00 pm


Visibility: 10 mi

Pressure: 29.89 "Hg

Humidity: 74%

Dew Point: 64 °F

Location of ChiclayoLocation

Past Weather in Chiclayo — Graph

°F

Chiclayo Temperature Yesterday

Maximum temperature yesterday: 82 °F (at 12:00 pm)
Minimum temperature yesterday: 70 °F (at 12:00 am)
Average temperature yesterday: 75 °F

High & Low Weather Summary for the Past Weeks

 TemperatureHumidityPressure
High86 °F (Apr 16, 2:00 pm)94% (Apr 21, 1:00 am)29.98 "Hg (Apr 21, 1:00 am)
Low70 °F (Apr 16, 2:00 am)51% (Apr 16, 12:00 pm)29.74 "Hg (Apr 22, 4:00 pm)
Average76 °F73%29.86 "Hg
* Reported Apr 15 6:00 pm — Apr 30 6:00 pm, Chiclayo, Weather by CustomWeather, © 2017

Note: Actual official high and low records may vary slightly from our data, if they occured in-between our weather recording intervals... More about our weather records

Advertising

Chiclayo Weather History for the Previous 24 Hours

Scroll right to see more
 ConditionsComfort  
Time TempWeatherWind HumidityBarometerVisibility
6:00 pm
Sun, Apr 30
77 °FSunny.17 mph65%29.86 "Hg10 mi
5:00 pm81 °FSunny.17 mph62%29.83 "Hg10 mi
4:00 pm81 °FSunny.16 mph62%29.83 "Hg10 mi
3:00 pm82 °FSunny.15 mph58%29.83 "Hg10 mi
2:00 pm84 °FPassing clouds.15 mph55%29.86 "HgN/A
1:00 pm84 °FScattered clouds.10 mph55%29.89 "HgN/A
12:00 pm84 °FPassing clouds.7 mph58%29.92 "HgN/A
11:00 am82 °FSunny.3 mph58%29.95 "Hg10 mi
10:00 am79 °FPassing clouds.6 mph65%29.95 "HgN/A
9:00 am75 °FPassing clouds.6 mph74%29.95 "HgN/A
8:00 am73 °FSunny.9 mph74%29.95 "Hg10 mi
7:00 am70 °FPartly sunny.6 mph83%29.95 "HgN/A
6:00 am72 °FOvercast.8 mph78%29.92 "HgN/A
5:00 am70 °FOvercast.13 mph83%29.89 "HgN/A
4:00 am70 °FOvercast.15 mph83%29.89 "HgN/A
3:00 am70 °FPassing clouds.14 mph83%29.89 "HgN/A
2:00 am72 °FClear.14 mph78%29.92 "Hg10 mi
1:00 am70 °FPassing clouds.13 mph83%29.92 "HgN/A
12:00 am72 °FMostly cloudy.9 mph78%29.89 "HgN/A
11:00 pm
Sat, Apr 29
72 °FClear.10 mph78%29.89 "Hg10 mi
10:00 pm72 °FClear.10 mph78%29.89 "Hg10 mi
9:00 pm73 °FClear.9 mph74%29.89 "Hg10 mi
8:00 pm73 °FMostly cloudy.14 mph78%29.86 "HgN/A
7:00 pm75 °FPassing clouds.15 mph69%29.86 "HgN/A
Weather by CustomWeather, © 2017

See weather overviewHow to use our weather pages